Simultaneous Nadir Overpasses (SNOs) Predictions

Prediction of SNOs between GOES-15 and METOP-A Satellite Orbit:

Table of predicted SNOs for the next 14.0 days since TLE Epoch: 10/25/2013
Index Date Time (GOES-15) GOES-15 Lat,Lon METOP-A Lat,Lon Distance(km) Time Diff (sec)
1 10/25/2013 18:24:31 -0.34,-134.70 -0.60,-133.51 135.45 80
2 10/27/2013 06:43:32 0.34,-134.78 -0.38,-138.11 378.82 80
3 10/28/2013 06:20:13 0.34,-134.82 0.74,-133.12 194.39 80
4 10/29/2013 18:39:03 -0.33,-134.86 0.33,-137.67 321.10 80
5 10/30/2013 18:21:04 -0.33,-134.90 -0.85,-132.69 252.34 80
6 11/01/2013 06:40:05 0.33,-134.98 -0.18,-137.28 262.44 80
7 11/02/2013 06:16:45 0.33,-135.01 0.94,-132.29 309.91 80
8 11/03/2013 18:35:36 -0.32,-135.03 0.06,-136.85 207.37 80
9 11/04/2013 18:17:37 -0.33,-135.06 -1.07,-131.86 365.03 80
10 11/06/2013 06:36:37 0.31,-135.13 0.04,-136.45 150.81 80
11 11/07/2013 06:13:17 0.32,-135.15 1.11,-131.45 420.56 80




NCC Satellite Simultaneous Nadir Overpasses (SNOs) Prediction Service
